Station 46069 (LLNR 181.6) - SOUTH SANTA ROSA - 14 NM SW of Santa Rosa Island, CA Image indicating link to RSS feed of recent meteorological observations for station 46069


Conditions at 46069 as of
(5:30 pm PDT on 07/17/2024)
0030 GMT on 07/18/2024:
     

Click on the graph icon in the table below to see a time series plot of the last five days of that observation.

5-day plot - Wind Direction Wind Direction (WDIR): NW ( 310 deg true )
5-day plot - Wind Speed Wind Speed (WSPD): 19.4 kts
5-day plot - Wind Gust Wind Gust (GST): 25.3 kts
5-day plot - Atmospheric Pressure Atmospheric Pressure (PRES):29.91 in
5-day plot - Air Temperature Air Temperature (ATMP): 58.6 °F
5-day plot - Water Temperature Water Temperature (WTMP): 62.6 °F
5-day plot - Dew Point Dew Point (DEWP): 57.7 °F
5-day plot - Wind Speed at 10 Meters Wind Speed at 10 meters (WSPD10M): 21.4 kts
5-day plot - Wind Speed at 20 Meters Wind Speed at 20 meters (WSPD20M): 23.3 kts
5-day plot -  Wind Speed, Wind Gust and Atmospheric Pressure Combined plot of Wind Speed, Gust, and Air Pressure
Supplemental Measurements
Highest 1-minute Wind Speed
Time (PDT)5-day plot - 1-Minute Wind Speed WSPD 5-day plot - 1-Minute Wind Direction WDIR
5:25 pm 21.4 kts-
Previous observations
TIME
(PDT)
5-day plot - Wind Direction
WDIR
 
5-day plot - Wind Speed
WSPD
kts
5-day plot - Wind Gust
GST
kts
5-day plot - Wave Height
WVHT
ft
5-day plot - Dominant Wave Period
DPD
sec
5-day plot - Average Wave Period
APD
sec
5-day plot - Mean Wave Direction
MWD
 
5-day plot - Atmospheric Pressure
PRES
in
5-day plot - Pressure Tendency
PTDY
in
5-day plot - Air Temperature
ATMP
°F
5-day plot - Water Temperature
WTMP
°F
5-day plot - Dew Point
DEWP
°F
5-day plot - Salinity
SAL
psu
5-day plot - Visibility
VIS
nmi
5-day plot - Tide (above MLLW)
TIDE
ft
2024-07-17 05:20 pmWNW 21.4 25.3 5.6 175.9 S29.91- 58.3 62.6 57.2---
2024-07-17 05:10 pm NW 19.4 25.3 5.6-5.9 S29.91- 58.8 62.6 57.6---
2024-07-17 05:00 pmWNW 19.4 23.3----29.92-0.06 58.8 62.6 57.6---
2024-07-17 04:50 pmWNW 17.5 23.3 5.6 175.7SSW29.92- 59.0 62.6 57.6---
2024-07-17 04:40 pmWNW 17.5 23.3----29.92- 58.8 62.6 57.4---
2024-07-17 04:20 pmWNW 17.5 21.4 4.9 165.6SSW29.93- 58.8 62.6 57.2---
2024-07-17 04:10 pm NW 17.5 21.4----29.93- 58.6 62.6 56.8---
2024-07-17 04:00 pm NW 19.4 23.3----29.94-0.05 58.8 62.6 57.0---
2024-07-17 03:50 pmWNW 19.4 23.3 5.2 175.8SSW29.94- 58.8 62.4 57.0---
2024-07-17 03:40 pmWNW 19.4 23.3----29.94- 58.6 62.4 56.8---
2024-07-17 03:30 pm NW 17.5 23.3----29.95- 58.6 62.4 57.0---
2024-07-17 03:20 pmWNW 19.4 23.3 5.6 176.2 SW29.95- 58.5 62.4 57.0---
2024-07-17 03:10 pmWNW 17.5 21.4 5.6-6.2 SW29.95- 58.5 62.4 57.2---
2024-07-17 03:00 pmWNW 17.5 21.4----29.96-0.03 58.3 62.2 56.8---
2024-07-17 02:50 pm NW 17.5 21.4 4.9 175.7 SW29.96- 58.5 62.2 56.8---
2024-07-17 02:40 pmWNW 17.5 19.4----29.97- 58.5 62.2 56.7---
2024-07-17 02:30 pmWNW 17.5 19.4----29.98- 58.6 62.1 56.7---
2024-07-17 02:20 pm NW 17.5 21.4 5.6 166.1SSW29.97- 58.6 62.1 56.5---
2024-07-17 02:10 pmWNW 17.5 21.4 5.6-6.1SSW29.98- 58.8 62.1 56.7---
2024-07-17 02:00 pmWNW 17.5 19.4----29.98-0.01 58.5 61.9 56.3---
2024-07-17 01:50 pm NW 17.5 19.4 5.6 166.0 SW29.98- 58.5 61.9 56.3---
2024-07-17 01:40 pm NW 15.5 19.4----29.98- 58.5 61.7 56.3---
2024-07-17 01:30 pm NW 17.5 21.4----29.98- 58.5 61.7 56.3---
2024-07-17 01:20 pm NW 17.5 21.4 5.2 165.9 S29.99- 58.5 61.7 56.3---
2024-07-17 01:10 pm NW 15.5 19.4 5.2-5.9 S30.00- 58.3 61.5 56.1---
2024-07-17 01:00 pm NW 17.5 21.4----29.99+0.00 58.5 61.5 56.3---
2024-07-17 12:50 pmWNW 15.5 19.4 5.9 176.2SSW30.00- 58.3 61.5 56.1---
2024-07-17 12:40 pm NW 17.5 21.4 5.9-6.2SSW30.00- 58.3 61.5 55.9---
2024-07-17 12:30 pm NW 17.5 21.4----30.00- 58.1 61.5 55.8---
2024-07-17 12:20 pm NW 17.5 19.4 5.6 175.9 SW30.00- 58.1 61.5 55.9---
2024-07-17 12:10 pm NW 17.5 19.4 5.6-5.9 SW29.99- 58.1 61.3 55.9---
2024-07-17 12:00 pm NW 17.5 21.4----29.99+0.01 58.3 61.3 56.1---
2024-07-17 11:50 am NW 15.5 19.4 5.2-5.8 SW-- 58.3- 56.3---
2024-07-17 11:40 am NW 15.5 19.4 5.2-5.8 SW29.99- 58.3 61.0 56.3---
2024-07-17 11:30 am NW 17.5 21.4----29.99- 58.1 61.0 56.1---
2024-07-17 11:20 am NW 17.5 21.4 5.2 175.5 SW29.99- 58.3 60.8 56.3---
2024-07-17 11:10 am NW 17.5 19.4 5.2-5.5 SW29.99- 58.1 60.8 56.1---
2024-07-17 11:00 am NW 17.5 21.4----29.99+0.03 58.1 60.6 56.3---
2024-07-17 10:50 am NW 15.5 21.4 6.2 176.2SSW30.00- 58.1 60.4 56.5---
2024-07-17 10:40 am NW 17.5 21.4----29.99- 58.1 60.1 56.5---
2024-07-17 10:30 am NW 17.5 21.4----29.99- 57.9 59.7 56.3---
2024-07-17 10:20 am NW 17.5 21.4 6.2 176.2 S29.99- 57.9 59.7 56.5---
2024-07-17 10:10 am NW 17.5 21.4----29.98- 57.9 59.7 56.5---
2024-07-17 10:00 am NW 17.5 21.4----29.98+0.03 57.9 59.7 56.5---
2024-07-17 09:50 am NW 17.5 21.4 5.9 175.8SSW29.98- 57.9 59.7 56.5---
2024-07-17 09:40 am NW 17.5 23.3----29.98- 57.9 59.7 56.5---
2024-07-17 09:30 am NW 17.5 23.3----29.98- 57.9 59.7 56.5---
2024-07-17 09:20 am NW 17.5 21.4 6.9 176.2SSW29.98- 57.9 59.7 56.5---
2024-07-17 09:10 am NW 17.5 21.4----29.99- 57.9 59.7 56.3---
2024-07-17 09:00 am NW 17.5 21.4----29.98+0.03 57.9 59.7 56.3---
2024-07-17 08:50 am NW 17.5 21.4 5.9 175.5 SW29.99- 57.9 59.7 56.3---
2024-07-17 08:40 am NW 17.5 21.4 5.9-5.5 SW29.98- 57.9 59.7 56.5---
2024-07-17 08:30 am NW 17.5 23.3----29.98- 57.9 59.7 56.3---
2024-07-17 08:20 am NW 17.5 23.3 6.6 175.9SSW29.98- 57.9 59.7 56.3---
2024-07-17 08:10 am NW 19.4 25.3 6.6-5.9SSW29.97- 57.9 59.7 56.3---
2024-07-17 08:00 am NW 19.4 23.3----29.96+0.04 58.1 59.7 56.5---
2024-07-17 07:50 am NW 19.4 23.3 6.6 175.9SSW29.96- 57.9 59.7 56.3---
2024-07-17 07:40 am NW 19.4 23.3----29.96- 57.9 59.7 56.1---
2024-07-17 07:30 am NW 21.4 25.3----29.96- 57.9 59.7 56.1---
2024-07-17 07:20 am NW 19.4 25.3 6.2 65.2 NW29.96- 58.3 60.3 56.5---
2024-07-17 07:10 am NW 19.4 23.3 6.2-5.2 NW29.96- 58.3 60.3 56.3---
2024-07-17 07:00 am NW 19.4 23.3----29.96+0.04 58.3 60.4 56.3---
2024-07-17 06:50 am NW 19.4 23.3 5.9 175.3WSW29.96- 58.3 60.6 56.7---
2024-07-17 06:40 am NW 19.4 23.3----29.95- 58.3 60.8 56.5---
2024-07-17 06:30 am NW 19.4 23.3----29.95- 58.3 61.0 56.3---
2024-07-17 06:20 am NW 19.4 25.3 7.2 176.0 S29.95- 58.5 61.2 56.3---
2024-07-17 06:10 am NW 19.4 25.3 7.2-6.0 S29.95- 58.8 61.2 56.5---
2024-07-17 06:00 am NW 17.5 23.3----29.96+0.04 59.2 61.3 56.8---
2024-07-17 05:50 am NW 17.5 21.4 6.9 175.9 SW29.94- 59.4 61.3 57.2---
2024-07-17 05:40 am NW 19.4 23.3----29.94- 59.2 61.3 56.8---
2024-07-17 05:30 am NW 19.4 23.3----29.94- 59.2 61.2 56.8---
2024-07-17 05:20 am NW 19.4 25.3 6.2 175.6 SW29.93- 59.4 61.2 57.0---
2024-07-17 05:10 am NW 19.4 25.3----29.93- 59.4 61.0 57.2---
2024-07-17 05:00 am NW 19.4 23.3----29.93+0.01 59.4 61.0 57.4---
2024-07-17 04:50 amWNW 19.4 23.3 6.2 175.3WSW29.93- 59.4 60.8 57.4---
2024-07-17 04:40 amWNW 19.4 25.3----29.92- 59.4 61.0 57.4---
2024-07-17 04:30 amWNW 19.4 25.3----29.91- 59.4 61.2 57.2---
2024-07-17 04:20 amWNW 21.4 25.3 6.6 175.8 SW29.91- 59.4 61.3 57.2---
2024-07-17 04:10 amWNW 19.4 25.3 6.6-5.8 SW29.92- 59.4 61.7 57.2---
2024-07-17 04:00 amWNW 21.4 27.2----29.92-0.01 59.5 61.9 57.4---
2024-07-17 03:50 amWNW 21.4 27.2 6.2 175.4 S29.91- 59.5 62.1 57.4---
2024-07-17 03:40 amWNW 21.4 25.3 6.2-5.4 S29.91- 59.5 62.2 57.6---
2024-07-17 03:30 amWNW 19.4 23.3----29.92- 59.7 62.2 57.6---
2024-07-17 03:20 amWNW 21.4 25.3 6.6 175.6WSW29.91- 59.7 62.4 57.4---
2024-07-17 03:10 amWNW 21.4 25.3 6.6-5.6WSW29.91- 59.7 62.4 57.4---
2024-07-17 03:00 amWNW 19.4 23.3----29.91-0.02 59.9 62.4 57.6---
2024-07-17 02:50 amWNW 19.4 23.3 6.2 175.5 SW29.93- 59.9 62.6 57.4---
2024-07-17 02:40 amWNW 19.4 25.3----29.92- 59.9 62.6 57.2---
2024-07-17 02:30 amWNW 21.4 27.2----29.92- 59.9 62.6 57.2---
2024-07-17 02:20 amWNW 19.4 25.3 5.9 65.2 NW29.91- 59.9 62.4 57.4---
2024-07-17 02:10 amWNW 19.4 25.3 5.9-5.2 NW29.92- 59.9 62.6 57.4---
2024-07-17 02:00 am NW 19.4 25.3----29.92-0.01 60.1 62.6 57.6---
2024-07-17 01:50 am NW 19.4 23.3 6.6 175.7SSW29.92- 60.1 62.6 57.7---
2024-07-17 01:40 am NW 19.4 25.3----29.92- 60.1 62.6 57.7---
2024-07-17 01:30 amWNW 19.4 23.3----29.93- 60.1 62.4 57.6---
2024-07-17 01:20 amWNW 19.4 25.3 6.6 175.7 SW29.93- 60.1 62.6 57.4---
2024-07-17 01:10 amWNW 19.4 23.3 6.6-5.7 SW29.93- 60.1 62.4 57.4---
2024-07-17 01:00 amWNW 19.4 25.3----29.93+0.00 60.1 62.4 57.4---
2024-07-17 12:50 am NW 19.4 23.3 6.6 175.5 W29.93- 60.1 62.2 57.4---
2024-07-17 12:40 am NW 21.4 27.2 6.6-5.5 W29.93- 60.1 62.2 57.2---
2024-07-17 12:30 am NW 21.4 27.2----29.93- 60.1 62.1 57.2---
2024-07-17 12:20 am NW 19.4 25.3 6.6 175.5SSW29.93- 60.3 61.9 57.2---
2024-07-17 12:10 amWNW 19.4 25.3 6.6-5.5SSW29.93- 60.3 61.7 57.0---
2024-07-17 12:00 am NW 19.4 25.3----29.93+0.01 60.3 61.3 57.0---
2024-07-16 11:50 pm NW 19.4 25.3 6.2 55.3 NW29.93- 60.3 61.2 57.0---
2024-07-16 11:40 pm NW 19.4 25.3----29.93- 60.3 61.0 57.0---
2024-07-16 11:30 pm NW 21.4 27.2----29.93- 60.3 60.8 56.8---
2024-07-16 11:20 pm NW 21.4 27.2 6.6 175.4SSW29.92- 60.4 60.8 56.8---
2024-07-16 11:10 pm NW 21.4 27.2 6.6-5.4SSW29.93- 60.4 60.8 56.8---
2024-07-16 11:00 pm NW 21.4 25.3----29.93+0.00 60.4 60.6 56.8---
2024-07-16 10:50 pm NW 21.4 25.3 5.9 175.4SSW29.92- 60.3 60.1 56.8---
2024-07-16 10:40 pm NW 19.4 25.3----29.93- 60.3 60.1 57.2---
2024-07-16 10:30 pm NW 21.4 25.3 5.9-5.4SSW29.93- 60.3 60.1 57.0---
2024-07-16 10:20 pm NW 21.4 27.2 5.6 195.1SSW29.93- 60.4 60.1 57.4---
2024-07-16 10:10 pm NW 21.4 27.2 5.6-5.1SSW29.93- 60.4 59.9 57.4---
2024-07-16 10:00 pm NW 21.4 25.3----29.93+0.00 60.4 59.9 57.6---
2024-07-16 09:50 pm NW 21.4 25.3 5.6 195.3WSW29.93- 60.4 59.9 57.6---
2024-07-16 09:40 pm NW 19.4 25.3 5.6-5.3WSW29.93- 60.6 59.9 57.7---
2024-07-16 09:30 pmWNW 21.4 25.3----29.93- 60.6 60.1 57.7---
2024-07-16 09:20 pm NW 21.4 25.3 5.2 195.1 SW29.92- 60.6 60.1 57.7---
2024-07-16 09:10 pmWNW 21.4 25.3 5.2-5.1 SW29.92- 60.6 60.3 57.7---
2024-07-16 09:00 pmWNW 21.4 25.3----29.93-0.01 60.8 60.3 57.9---
2024-07-16 08:50 pmWNW 21.4 25.3 5.2 175.1 S29.92- 60.8 60.4 57.9---
2024-07-16 08:40 pmWNW 19.4 25.3----29.92- 60.8 60.4 57.7---
2024-07-16 08:30 pmWNW 21.4 25.3----29.93- 60.8 60.4 57.7---
2024-07-16 08:20 pmWNW 21.4 25.3 5.2 175.4 SW29.93- 61.0 60.4 57.7---
2024-07-16 08:10 pmWNW 21.4 25.3 5.2-5.4 SW29.92- 61.0 60.6 57.7---
2024-07-16 08:00 pmWNW 19.4 25.3----29.93-0.03 61.0 60.6 57.7---
2024-07-16 07:50 pmWNW 19.4 25.3 5.2 195.4SSW29.93- 61.2 60.8 57.7---
2024-07-16 07:40 pmWNW 19.4 25.3 5.2-5.4SSW29.93- 61.2 60.8 57.6---
2024-07-16 07:30 pmWNW 21.4 25.3----29.93- 61.2 60.8 57.6---
2024-07-16 07:20 pmWNW 19.4 23.3 5.2 175.8 SW29.93- 61.2 60.8 57.7---
2024-07-16 07:10 pmWNW 19.4 23.3 5.2-5.8 SW29.93- 61.2 60.8 57.9---
2024-07-16 07:00 pmWNW 19.4 23.3----29.93-0.04 61.2 61.0 57.9---
2024-07-16 06:50 pmWNW 17.5 23.3 4.3 195.3 SW29.93- 61.2 61.0 58.1---
2024-07-16 06:40 pmWNW 19.4 23.3----29.93- 61.2 61.0 58.1---
2024-07-16 06:30 pmWNW 19.4 23.3----29.93- 61.3 61.0 58.1---
2024-07-16 06:20 pmWNW 17.5 23.3 4.6 195.7 SW29.93- 61.3 61.0 58.1---
2024-07-16 06:10 pmWNW 17.5 23.3 4.6-5.7 SW29.93- 61.3 61.0 58.1---
2024-07-16 06:00 pmWNW 17.5 21.4----29.93-0.04 61.3 61.0 58.3---
2024-07-16 05:50 pmWNW 17.5 19.4 4.6 176.0 S29.94- 61.2 60.8 58.1---
2024-07-16 05:40 pmWNW 15.5 21.4 4.6-6.0 S29.94- 61.2 60.8 58.5---
2024-07-16 05:30 pmWNW 15.5 19.4----29.95- 61.2 60.8 58.3---
2024-07-16 05:20 pmWNW 15.5 19.4 4.9 195.9 S29.95- 61.2 60.6 58.3---
2024-07-16 05:10 pmWNW 15.5 19.4 4.9-5.9 S29.95- 61.2 60.6 58.3---
2024-07-16 05:00 pmWNW 13.6 17.5----29.96-0.05 61.2 60.6 58.3---
2024-07-16 04:50 pmWNW 15.5 19.4 4.9 196.0 S29.96- 61.2 60.6 58.3---

Detailed Wave Summary
for 46069 as of
(5:10 pm PDT on 07/17/2024)
0010 GMT on 07/18/2024:

These wave data are displayed in rounded times.

     

Click on the graph icon in the table below to see a time series plot of the last five days of that observation.

5-day plot - Significant Wave Height Significant Wave Height (WVHT): 5.6 ft
5-day plot - Swell Height Swell Height (SwH): 3.9 ft
5-day plot - Swell Period Swell Period (SwP): 17.4 sec
5-day plot - Swell Direction Swell Direction (SwD): S
5-day plot - Wind Wave Height Wind Wave Height (WWH): 3.9 ft
5-day plot - Wind Wave Period Wind Wave Period (WWP): 5.0 sec
5-day plot - Wind Wave Direction Wind Wave Direction (WWD): NW
5-day plot - Wave Steepness Wave Steepness (STEEPNESS): SWELL
5-day plot - Average Wave Period Average Wave Period (APD): 5.9 sec
Previous observations
TIME
(PDT)
5-day plot - Wave Height
WVHT
ft
5-day plot - Swell Height
SwH
ft
5-day plot - Swell Period
SwP
sec
5-day plot - Swell Direction
SwD
 
5-day plot - Wind Wave Height
WWH
ft
5-day plot - Wind Wave Period
WWP
sec
5-day plot - Wind Wave Direction
WWD
 
5-day plot - Wave Steepness
STEEPNESS
 
5-day plot - Average Wave Period
APD
sec
2024-07-17 04:40 pm 5.6 3.6 17.4SSW 4.3 5.6 NW AVERAGE 5.7
2024-07-17 04:10 pm 4.9 3.3 16.0SSW 3.9 5.6 NW AVERAGE 5.6
2024-07-17 03:40 pm 5.2 3.6 17.4SSW 3.6 5.6 NW SWELL 5.8
2024-07-17 03:10 pm 5.6 3.9 17.4 SW 3.6 5.0 WNW SWELL 6.2
2024-07-17 02:40 pm 4.9 3.3 17.4 SW 3.6 5.6 WNW AVERAGE 5.7
2024-07-17 02:10 pm 5.6 3.9 16.0SSW 3.6 5.3 NW SWELL 6.1
2024-07-17 01:40 pm 5.6 3.9 16.0 SW 3.9 5.6 NW SWELL 6.0
2024-07-17 01:10 pm 5.2 3.6 16.0 S 3.9 5.3 WNW AVERAGE 5.9
2024-07-17 12:40 pm 5.9 4.3 17.4SSW 3.9 5.6 WNW SWELL 6.2
2024-07-17 12:10 pm 5.6 3.6 17.4 SW 4.3 5.9 NW AVERAGE 5.9
2024-07-17 11:40 am 5.2 3.6 16.0 SW 3.9 5.6 NW AVERAGE 5.8
2024-07-17 11:10 am 5.2 3.3 17.4 SW 4.3 5.9 NW AVERAGE 5.5
2024-07-17 10:40 am 6.2 4.3 17.4SSW 4.6 5.6 NW AVERAGE 6.2
2024-07-17 10:10 am 6.2 4.6 17.4 S 4.3 5.9 NW SWELL 6.2
2024-07-17 09:40 am 5.9 3.9 17.4SSW 4.6 6.2 NW AVERAGE 5.8
2024-07-17 09:10 am 6.9 4.6 17.4SSW 5.2 5.9 NW AVERAGE 6.2
2024-07-17 08:40 am 5.9 3.3 17.4 SW 4.6 5.9 NW AVERAGE 5.5
2024-07-17 08:10 am 6.6 4.3 17.4SSW 5.2 6.2 NW AVERAGE 5.9
2024-07-17 07:40 am 6.6 4.3 17.4SSW 5.2 5.6 NW AVERAGE 5.9
2024-07-17 07:10 am 6.2 3.0 17.4SSW 5.6 5.6 NWVERY_STEEP 5.2
2024-07-17 06:40 am 5.9 3.0 17.4WSW 4.9 5.9 NW AVERAGE 5.3
2024-07-17 06:10 am 7.2 4.6 17.4 S 5.6 5.9 NW AVERAGE 6.0
2024-07-17 05:40 am 6.9 4.3 17.4 SW 5.2 5.9 NW AVERAGE 5.9
2024-07-17 05:10 am 6.2 3.6 17.4 SW 4.9 5.9 NW AVERAGE 5.6
2024-07-17 04:40 am 6.2 3.0 17.4WSW 5.6 5.9 NW AVERAGE 5.3
2024-07-17 04:10 am 6.6 3.9 17.4 SW 5.2 5.6 NW AVERAGE 5.8
2024-07-17 03:40 am 6.2 3.0 17.4 S 5.6 5.9 NW AVERAGE 5.4
2024-07-17 03:10 am 6.6 3.6 17.4WSW 5.6 5.3 NW AVERAGE 5.6
2024-07-17 02:40 am 6.2 3.3 17.4 SW 5.2 5.6 WNW AVERAGE 5.5
2024-07-17 02:10 am 5.9 2.3 17.4WSW 5.2 5.6 NWVERY_STEEP 5.2
2024-07-17 01:40 am 6.6 3.9 17.4SSW 5.2 5.3 NW AVERAGE 5.7
2024-07-17 01:10 am 6.6 3.6 17.4 SW 5.6 5.9 WNW AVERAGE 5.7
2024-07-17 12:40 am 6.6 3.6 17.4 W 5.6 5.6 NW AVERAGE 5.5
2024-07-17 12:10 am 6.6 3.6 17.4SSW 5.2 5.3 WNW AVERAGE 5.5
2024-07-16 11:40 pm 6.2 3.0 17.4 SE 5.2 5.3 NWVERY_STEEP 5.3
2024-07-16 11:10 pm 6.6 3.6 17.4SSW 5.6 5.3 WNW AVERAGE 5.4
2024-07-16 10:40 pm 5.9 3.6 17.4SSW 4.6 5.0 NW AVERAGE 5.4
2024-07-16 10:10 pm 5.6 3.3 19.0SSW 4.6 5.0 NW AVERAGE 5.1
2024-07-16 09:40 pm 5.6 3.6 19.0WSW 4.3 5.0 NW AVERAGE 5.3
2024-07-16 09:10 pm 5.2 3.3 19.0 SW 4.3 5.0 WNW AVERAGE 5.1
2024-07-16 08:40 pm 5.2 3.3 17.4 S 3.9 4.8 NW AVERAGE 5.1
2024-07-16 08:10 pm 5.2 3.6 17.4 SW 3.6 4.3 WNW SWELL 5.4
2024-07-16 07:40 pm 5.2 3.6 19.0SSW 3.6 4.5 NW SWELL 5.4
2024-07-16 07:10 pm 5.2 3.9 17.4 SW 3.3 4.3 NW SWELL 5.8
2024-07-16 06:40 pm 4.3 3.0 19.0 SW 3.0 4.2 NW SWELL 5.3
2024-07-16 06:10 pm 4.6 3.6 19.0 SW 3.0 4.3 NW SWELL 5.7
2024-07-16 05:40 pm 4.6 3.9 17.4 S 2.6 4.2 NW SWELL 6.0
2024-07-16 05:10 pm 4.9 3.6 19.0 S 3.0 4.2 NW SWELL 5.9

Plot of wave energy versus frequency (and period)